Wind_Speed
14 24 31 37 45 40 40 37 43 39 38 40 42 45 48 45 46 49 46 43 42 40 47 50 46 46 46 47 45 42 37 36 35 35 36 40 39 39 39 37 36 35 34 33
28 35 26 26 24 35 47 43 43 46 40 35 39 46 44 42 47 48 45 46 46 45 43 42 44 50 51 49 49 48 44 42 40 39 36 37 38 40 40 37 36 35 35 36
35 42 31 29 28 28 44 54 48 33 33 39 41 45 43 40 38 41 41 43 44 46 45 46 45 40 48 50 52 52 50 49 46 43 43 43 42 44 44 43 41 40 39 38
38 31 30 28 35 31 36 44 58 50 31 40 38 18 31 36 41 44 47 46 44 43 40 41 46 48 43 48 45 44 47 50 49 49 50 50 48 47 46 43 40 39 39 38
42 36 32 31 33 26 35 30 37 43 36 27 26 20 28 34 38 41 46 44 48 50 48 47 42 39 41 46 45 43 44 49 49 50 50 50 52 50 46 44 41 40 40 39
36 28 32 34 31 36 33 24 29 28 27 20 33 33 29 31 32 32 37 41 42 43 43 45 45 48 44 41 41 43 45 44 48 52 53 52 52 53 48 45 43 41 41 42
20 23 21 16 23 29 29 19 3 7 12 18 39 24 25 16 31 36 42 41 32 31 33 34 38 42 45 45 44 47 48 48 46 45 50 51 50 51 48 46 42 41 40 41
9 11 11 11 21 22 23 35 10 8 7 11 36 15 51 57 54 47 38 30 23 19 22 26 32 36 35 39 43 47 54 50 50 47 43 43 45 47 46 45 42 39 38 37
20 20 36 29 22 26 13 30 36 12 5 1 5 18 39 36 30 31 31 33 33 29 29 23 22 34 43 40 43 47 51 60 53 48 48 43 41 43 43 42 40 39 37 37
32 24 15 25 30 3 26 21 13 10 5 6 0 4 4 20 32 31 30 28 30 32 35 35 32 21 25 32 38 43 47 50 59 54 52 50 42 41 42 41 40 39 38 38
33 11 23 35 18 17 18 21 17 16 5 3 3 2 8 4 6 13 22 25 29 26 28 28 24 25 26 31 33 37 40 45 50 58 57 54 57 51 45 42 39 41 41 41
20 15 25 35 9 16 13 14 23 14 4 3 5 1 5 1 6 7 5 8 13 16 19 20 20 22 22 23 28 33 37 40 43 48 55 56 55 59 58 54 47 46 45 44
22 10 17 19 12 22 28 11 15 11 10 11 5 4 8 4 3 5 12 12 11 13 14 17 18 19 20 23 24 30 37 39 38 43 47 51 56 55 56 63 61 55 53 51
14 14 18 13 26 33 18 12 17 11 6 12 2 9 6 6 5 3 4 7 10 12 13 12 13 14 16 18 17 21 28 36 37 39 44 47 48 49 46 51 53 54 52 51
13 22 18 24 17 9 21 22 11 10 5 4 6 8 3 5 10 13 16 18 18 20 21 20 21 21 19 21 18 17 18 24 30 34 39 42 43 44 44 47 50 50 46 44
26 13 26 19 4 10 25 32 23 26 22 20 13 19 12 6 5 8 10 13 16 20 23 18 17 18 20 19 19 17 16 18 23 27 32 34 36 40 43 44 44 45 43 42
16 9 9 6 7 7 8 17 28 27 24 22 23 18 15 10 3 6 8 9 10 11 14 17 19 18 20 20 21 21 22 17 17 21 24 28 32 35 37 38 38 39 40 40
11 8 7 9 15 5 2 12 7 21 23 21 18 18 16 15 13 12 11 9 10 12 12 11 13 17 16 19 21 21 19 22 20 20 20 24 29 32 35 37 37 38 39 40
6 10 5 5 4 3 11 16 6 8 19 19 18 17 16 14 13 16 15 14 11 11 10 12 11 10 12 15 16 18 16 19 19 22 21 25 28 32 34 37 38 39 38 37
12 2 5 7 3 2 14 13 5 2 13 17 16 16 14 12 11 15 14 15 14 14 12 10 8 8 10 12 15 14 16 18 18 16 18 21 24 26 28 29 30 28 28 31
12 5 5 9 1 4 13 14 6 4 8 14 14 15 14 15 15 14 14 14 15 13 13 12 9 7 8 9 11 13 14 14 13 13 13 16 19 21 23 24 24 26 28 31
9 7 5 4 2 2 12 10 7 7 9 12 12 11 12 13 14 14 13 13 12 13 13 12 11 9 7 7 7 9 10 11 11 11 14 16 17 20 22 24 27 32 30 28
7 6 4 4 4 10 8 10 10 8 8 9 10 11 12 14 14 15 15 14 12 11 11 11 11 9 7 6 7 8 9 10 11 12 14 16 17 18 20 22 23 25 25 27
13 8 5 5 7 8 6 9 10 10 9 10 11 11 13 14 15 14 15 14 14 12 11 11 10 9 8 6 8 10 12 13 14 15 15 16 16 16 17 19 22 25 26 25
11 8 7 6 7 8 7 9 9 9 9 10 10 11 12 13 14 14 14 15 15 14 12 11 9 9 8 7 6 9 11 14 16 18 20 21 21 21 21 22 23 22 21 21
8 9 8 6 8 8 7 7 7 7 8 9 10 11 12 12 14 15 16 16 16 16 16 14 12 10 9 8 7 7 9 11 14 17 18 20 22 22 21 19 18 16 16 14
Wind_Direction
265 291 273 267 258 248 250 247 251 254 255 244 245 253 254 253 251 252 251 249 245 242 237 239 239 241 238 236 236 234 233 233 232 232 232 232 233 232 237 239 242 246 249 250
279 283 287 281 270 252 248 254 252 252 247 248 254 253 256 253 251 250 251 251 249 246 237 236 237 235 238 238 238 239 237 232 237 240 237 236 234 236 239 241 246 248 249 249
272 284 280 265 263 256 243 241 251 252 255 253 249 254 250 247 247 248 249 247 246 245 241 236 237 234 235 238 238 240 240 241 242 239 237 238 235 233 235 240 243 245 246 247
272 286 272 256 257 258 262 244 244 254 268 244 237 255 252 251 251 248 247 245 244 242 238 236 236 237 232 233 235 238 240 241 242 242 242 239 240 241 243 246 249 251 249 249
273 282 275 277 257 264 259 265 252 244 257 272 222 234 245 250 247 251 253 249 250 247 246 238 234 235 235 235 238 239 240 242 241 240 240 241 238 239 240 241 245 246 246 246
287 288 269 264 271 266 272 263 255 245 252 261 260 227 240 224 229 244 256 259 256 253 250 247 244 242 237 234 237 234 235 239 242 242 239 240 239 238 238 241 243 245 244 243
297 292 295 271 275 273 253 227 236 217 227 243 244 248 246 228 240 256 267 266 264 261 258 256 249 243 241 240 239 234 236 237 238 241 241 241 239 238 237 239 242 242 245 244
284 323 314 298 280 265 246 210 178 209 207 236 241 238 250 257 264 263 262 260 259 245 242 247 244 237 237 233 233 234 232 236 239 238 242 244 240 236 233 235 237 241 245 245
342 304 308 294 307 276 217 199 216 256 262 219 197 224 240 244 244 253 249 250 250 252 255 259 259 243 232 232 235 235 233 230 233 238 240 239 236 232 232 232 235 238 243 244
336 302 325 333 331 250 222 186 193 193 204 196 358 278 203 215 236 241 250 250 250 252 254 256 250 246 237 235 232 234 234 232 229 232 228 235 238 232 231 232 234 239 244 245
336 298 302 328 325 296 202 205 204 221 240 139 107 299 346 308 222 228 239 247 249 249 250 252 257 250 252 247 242 233 230 231 231 231 231 226 226 232 236 233 235 240 243 244
343 310 310 320 354 30 291 247 195 178 220 138 125 148 333 280 195 207 208 232 240 243 243 243 248 252 262 253 245 238 234 232 233 234 235 235 231 229 228 241 235 236 244 245
328 322 317 338 335 333 346 322 214 202 146 165 144 178 120 125 177 202 227 247 243 245 244 246 251 251 254 257 257 244 238 236 237 233 234 234 234 234 235 233 240 242 241 243
313 301 309 286 299 314 345 354 215 185 159 173 173 153 180 188 200 206 245 255 257 257 248 245 235 239 251 253 255 246 242 237 238 237 233 232 233 233 231 232 225 228 231 235
308 305 313 318 326 60 36 40 133 162 155 139 105 92 26 275 275 277 266 275 276 278 274 268 253 253 263 263 261 245 238 242 239 235 235 233 233 230 228 228 231 232 234 239
299 292 311 319 115 37 42 52 75 79 81 94 75 48 28 10 304 285 268 268 262 257 260 263 260 255 249 249 241 238 238 233 233 233 230 229 228 225 223 222 224 227 231 234
289 289 311 282 282 322 23 20 52 65 62 58 47 32 38 38 15 299 293 299 294 288 278 266 265 258 253 243 241 229 232 235 225 221 222 220 219 218 219 221 223 226 229 231
249 282 301 292 341 49 17 25 34 48 55 55 51 43 38 39 38 23 6 340 314 306 291 289 269 257 258 252 243 238 232 239 242 239 227 225 221 220 219 220 222 225 228 231
341 248 297 313 16 135 27 358 13 55 38 37 41 44 36 32 27 28 21 7 356 345 325 279 278 269 258 257 251 249 244 241 239 241 237 232 231 229 228 226 222 221 222 223
31 0 283 341 54 21 354 3 26 137 30 17 22 21 28 30 34 26 16 13 2 358 347 336 284 274 264 260 264 261 255 249 243 240 239 235 229 229 228 226 226 226 222 222
12 17 297 333 71 32 11 15 29 41 337 360 0 0 9 16 12 7 8 3 5 2 359 352 335 287 268 265 265 261 252 244 236 230 226 226 222 219 217 213 214 218 222 228
358 356 355 2 49 321 19 25 48 20 358 359 356 6 14 18 13 2 354 357 357 359 2 357 355 331 289 265 255 251 244 231 222 226 223 225 226 227 230 230 228 229 228 232
1 4 9 31 9 357 357 359 355 347 342 346 353 357 0 2 357 354 353 355 349 352 356 356 355 349 324 287 260 243 241 240 233 233 232 234 233 236 238 238 238 241 242 243
342 348 334 327 344 350 337 339 341 345 345 348 346 346 346 346 345 347 348 349 348 348 348 349 349 345 334 312 277 261 254 253 256 257 252 247 246 249 251 250 245 239 236 234
303 316 317 298 327 340 342 349 356 1 6 8 12 10 7 8 6 8 4 360 355 351 346 341 341 335 331 315 297 280 265 256 256 259 262 263 260 255 251 248 245 239 235 235
291 307 310 308 323 332 344 352 0 13 25 31 32 32 30 28 24 20 18 13 7 359 353 346 336 332 330 325 325 311 290 277 266 257 252 254 255 253 248 244 240 237 233 234
Height
2942 2940 2937 2939 2944 2944 2944 2946 2943 2945 2950 2953 2948 2947 2953 2963 2969 2971 2975 2980 2985 2989 2999 3004 3009 3014 3018 3023 3026 3031 3035 3040 3042 3045 3048 3051 3056 3061 3065 3069 3072 3075 3079 3081
2935 2928 2933 2931 2932 2933 2935 2935 2933 2937 2941 2943 2941 2935 2946 2952 2954 2960 2965 2968 2972 2978 2985 2991 2996 3001 3004 3010 3016 3020 3026 3029 3033 3037 3043 3043 3050 3054 3057 3060 3064 3067 3070 3072
2926 2922 2924 2924 2923 2921 2919 2923 2926 2929 2935 2932 2936 2928 2935 2940 2945 2949 2951 2956 2961 2966 2972 2979 2984 2989 2993 2996 3002 3008 3015 3020 3024 3028 3030 3035 3039 3041 3045 3049 3054 3057 3059 3062
2917 2911 2912 2911 2911 2915 2911 2916 2920 2923 2927 2915 2927 2914 2922 2928 2932 2939 2941 2945 2950 2955 2960 2966 2972 2977 2981 2986 2990 2995 3000 3005 3011 3016 3019 3023 3029 3033 3039 3044 3047 3049 3051 3054
2902 2904 2907 2905 2900 2907 2902 2907 2911 2917 2915 2915 2908 2913 2908 2919 2922 2927 2931 2936 2939 2944 2949 2955 2960 2966 2971 2976 2980 2984 2989 2992 2998 3003 3008 3012 3017 3022 3029 3032 3036 3039 3041 3044
2897 2900 2900 2892 2895 2897 2897 2901 2904 2908 2911 2902 2903 2905 2897 2905 2911 2917 2922 2925 2929 2932 2937 2942 2949 2955 2960 2966 2969 2973 2976 2981 2986 2990 2995 3000 3006 3010 3017 3021 3026 3028 3031 3033
2894 2891 2889 2888 2887 2886 2890 2895 2899 2902 2898 2884 2896 2900 2893 2898 2904 2909 2913 2917 2920 2923 2926 2932 2937 2942 2947 2952 2957 2962 2966 2970 2975 2979 2983 2989 2994 2999 3007 3012 3016 3018 3021 3023
2891 2888 2887 2885 2882 2879 2878 2882 2884 2890 2880 2885 2890 2885 2877 2889 2898 2903 2906 2908 2911 2913 2915 2919 2923 2927 2933 2938 2942 2947 2953 2959 2964 2969 2973 2979 2983 2988 2995 3001 3005 3009 3012 3016
2899 2888 2881 2877 2871 2872 2869 2871 2876 2880 2878 2880 2875 2876 2877 2880 2887 2892 2895 2899 2903 2906 2908 2912 2914 2915 2919 2927 2930 2934 2939 2945 2951 2958 2963 2968 2972 2977 2984 2991 2996 2999 3002 3005
2900 2886 2874 2871 2865 2860 2865 2870 2874 2878 2877 2876 2874 2874 2873 2873 2879 2885 2887 2890 2894 2898 2901 2904 2908 2909 2912 2916 2919 2922 2926 2931 2938 2943 2948 2957 2963 2967 2973 2979 2984 2988 2992 2995
2897 2890 2875 2872 2866 2862 2864 2865 2868 2871 2870 2874 2876 2875 2874 2873 2876 2878 2880 2883 2886 2890 2892 2895 2899 2901 2904 2906 2909 2912 2915 2919 2924 2930 2937 2941 2947 2955 2961 2967 2973 2977 2981 2984
2895 2888 2878 2869 2862 2861 2860 2860 2861 2862 2869 2869 2869 2875 2874 2873 2873 2876 2877 2879 2881 2883 2886 2888 2891 2894 2896 2898 2900 2902 2906 2910 2914 2918 2923 2930 2936 2942 2947 2953 2959 2965 2969 2973
2896 2891 2880 2866 2865 2860 2858 2858 2859 2857 2859 2864 2871 2873 2872 2871 2872 2873 2874 2876 2878 2880 2881 2883 2885 2888 2889 2890 2891 2893 2896 2900 2903 2907 2912 2917 2922 2928 2934 2938 2944 2950 2956 2961
2897 2893 2892 2887 2878 2872 2862 2854 2852 2857 2860 2863 2868 2867 2869 2870 2872 2872 2873 2874 2875 2876 2876 2877 2879 2881 2881 2882 2883 2885 2887 2890 2893 2897 2901 2906 2911 2917 2923 2929 2932 2937 2942 2947
2894 2888 2887 2884 2875 2873 2867 2858 2852 2856 2860 2863 2868 2868 2869 2868 2869 2870 2870 2870 2871 2871 2872 2872 2873 2875 2876 2877 2877 2878 2880 2882 2884 2887 2891 2897 2902 2906 2911 2916 2923 2928 2933 2937
2892 2886 2883 2878 2875 2872 2871 2866 2862 2860 2862 2866 2867 2868 2868 2867 2867 2867 2866 2867 2866 2865 2866 2868 2868 2869 2870 2872 2872 2873 2876 2875 2877 2879 2882 2886 2891 2895 2901 2906 2911 2917 2923 2928
2889 2885 2883 2876 2875 2871 2874 2874 2871 2869 2869 2869 2868 2871 2867 2866 2866 2865 2865 2864 2862 2862 2862 2863 2865 2864 2865 2866 2867 2868 2870 2871 2872 2873 2876 2879 2883 2887 2892 2897 2902 2908 2913 2917
2884 2885 2884 2878 2874 2878 2882 2879 2877 2876 2874 2873 2873 2871 2869 2867 2867 2865 2863 2862 2861 2860 2859 2859 2860 2860 2860 2861 2861 2862 2863 2865 2867 2870 2872 2875 2878 2881 2885 2889 2894 2898 2903 2908
2884 2885 2884 2882 2879 2882 2880 2879 2878 2878 2878 2875 2874 2872 2871 2870 2868 2865 2863 2861 2860 2858 2857 2856 2856 2856 2855 2856 2857 2857 2858 2859 2861 2864 2867 2870 2873 2877 2880 2883 2886 2889 2894 2899
2885 2885 2887 2884 2883 2886 2883 2880 2878 2878 2879 2877 2875 2874 2871 2871 2868 2865 2864 2862 2860 2857 2855 2854 2852 2852 2852 2852 2853 2853 2855 2855 2858 2860 2862 2865 2867 2871 2875 2878 2882 2886 2890 2895
2889 2887 2887 2885 2885 2886 2883 2880 2879 2880 2886 2879 2877 2875 2872 2870 2869 2867 2864 2863 2860 2857 2855 2852 2851 2849 2849 2850 2850 2851 2852 2853 2855 2857 2859 2862 2865 2867 2871 2874 2878 2881 2885 2889
2894 2891 2889 2887 2887 2888 2885 2883 2882 2884 2881 2880 2877 2875 2873 2871 2869 2867 2865 2862 2860 2858 2855 2853 2850 2848 2848 2847 2848 2849 2850 2851 2853 2855 2857 2860 2862 2865 2867 2870 2873 2877 2879 2881
2896 2894 2892 2891 2890 2886 2885 2884 2883 2882 2881 2879 2877 2874 2872 2870 2868 2866 2864 2861 2859 2857 2855 2853 2851 2849 2847 2846 2846 2847 2848 2849 2851 2853 2855 2857 2859 2861 2863 2866 2868 2871 2873 2874
2897 2894 2892 2891 2889 2886 2886 2884 2882 2880 2878 2877 2875 2873 2871 2869 2867 2865 2862 2860 2858 2855 2854 2852 2850 2849 2848 2847 2846 2846 2846 2847 2848 2849 2851 2853 2854 2856 2858 2860 2862 2865 2867 2869
2897 2894 2891 2890 2888 2886 2884 2882 2880 2879 2877 2876 2875 2873 2871 2868 2866 2864 2861 2859 2857 2855 2853 2851 2850 2848 2847 2846 2845 2845 2845 2845 2846 2846 2847 2848 2849 2850 2852 2854 2856 2858 2861 2864
2893 2891 2890 2888 2886 2884 2883 2881 2880 2879 2878 2876 2874 2873 2871 2870 2867 2864 2862 2859 2857 2854 2852 2850 2849 2847 2846 2845 2844 2843 2843 2843 2843 2844 2844 2845 2845 2846 2847 2849 2851 2854 2856 2858